WetterOnline ( https://www.wetteronline.de )

Wetter aktuell Neuruppin

Aktuelles Wetter: Neuruppin - Alt Ruppin (50m)

6-stündlich | Neueste Meldungen
Ortszeit Temperatur Wetter
Di, 18.06. 14:00 23.2° C bedeckt
Di, 18.06. 8:00 16.8° C wolkig
Di, 18.06. 2:00 12.0° C wolkenlos
Mo, 17.06. 20:00 18.1° C Regen
Mo, 17.06. 14:00 21.9° C leichter Regen
Mo, 17.06. 8:00 19.1° C fast wolkenlos
Mo, 17.06. 2:00 14.8° C bedeckt
So, 16.06. 20:00 20.4° C bedeckt
Ortszeit Temperatur Wetter
Di, 18.06. 19:30 20.1° C leichter Regen
Di, 18.06. 19:20 20.1° C leichter Regen
Di, 18.06. 19:10 20.4° C leichter Regen
Di, 18.06. 19:00 22.9° C bewölkt
Di, 18.06. 18:50 22.9° C bewölkt
Di, 18.06. 18:40 23.2° C bedeckt
Di, 18.06. 18:30 23.6° C wolkig
Di, 18.06. 18:00 23.7° C wolkig
Di, 18.06. 17:30 23.9° C wolkig
Di, 18.06. 17:00 24.4° C bewölkt
Di, 18.06. 16:30 24.5° C wolkig
Ortszeit Relative Feuchte Sichtweite
Di, 18.06. 14:00 50% >70 km
Di, 18.06. 8:00 81% 60 km
Di, 18.06. 2:00 97% 30 km
Mo, 17.06. 20:00 93% 50 km
Mo, 17.06. 14:00 54% >70 km
Mo, 17.06. 8:00 63% 60 km
Mo, 17.06. 2:00 82% 65 km
So, 16.06. 20:00 57% 55 km
Ortszeit Relative Feuchte Sichtweite
Di, 18.06. 19:30 80% 40 km
Di, 18.06. 19:20 80% -
Di, 18.06. 19:10 75% -
Di, 18.06. 19:00 58% >70 km
Di, 18.06. 18:50 58% -
Di, 18.06. 18:40 57% -
Di, 18.06. 18:30 55% >70 km
Di, 18.06. 18:00 54% >70 km
Di, 18.06. 17:30 53% >70 km
Di, 18.06. 17:00 51% >70 km
Di, 18.06. 16:30 50% 60 km
Ortszeit Niederschlagsmenge Niederschlagsart
Di, 18.06. 14:00 0.0 l/m2 in 6 Std. -
Di, 18.06. 8:00 0.0 l/m2 in 12 Std. -
Di, 18.06. 2:00 0.0 l/m2 in 6 Std. -
Mo, 17.06. 20:00 0.4 l/m2 in 12 Std. Regen
Mo, 17.06. 14:00 0.1 l/m2 in 6 Std. Regen
Mo, 17.06. 8:00 0.1 l/m2 in 12 Std. -
Mo, 17.06. 2:00 0.1 l/m2 in 6 Std. Regen
So, 16.06. 20:00 1 l/m2 in 12 Std. Regen
Ortszeit Niederschlagsmenge Niederschlagsart
Di, 18.06. 19:30 0.4 l/m2 in 30 Min -
Di, 18.06. 19:20 keine Meldung -
Di, 18.06. 19:10 keine Meldung -
Di, 18.06. 19:00 <0.05 l/m2 in 1 Std. Regen
Di, 18.06. 18:50 keine Meldung -
Di, 18.06. 18:40 keine Meldung -
Di, 18.06. 18:30 0.0 l/m2 in 30 Min -
Di, 18.06. 18:00 0.0 l/m2 in 1 Std. -
Di, 18.06. 17:30 0.0 l/m2 in 30 Min -
Di, 18.06. 17:00 0.0 l/m2 in 1 Std. -
Di, 18.06. 16:30 0.0 l/m2 in 30 Min -
Ortszeit Stärke Spitze Richtung
km/h Bft. km/h Grad Sektor
Di, 18.06. 14:00 7 2 14 250° W
Di, 18.06. 8:00 4 1 7 260° W
Di, 18.06. 2:00 2 1 26 100° O
Mo, 17.06. 20:00 7 2 29 260° W
Mo, 17.06. 14:00 7 2 26 220° SW
Mo, 17.06. 8:00 2 1 7 180° S
Mo, 17.06. 2:00 4 1 14 110° O
So, 16.06. 20:00 4 1 40 150° SO
Ortszeit Stärke Spitze Richtung
km/h Bft. km/h Grad Sektor
Di, 18.06. 19:30 4 1 18 30° NO
Di, 18.06. 19:20 4 1 - 30° NO
Di, 18.06. 19:10 7 2 - 60° NO
Di, 18.06. 19:00 4 1 14 70° O
Di, 18.06. 18:50 4 1 - 70° O
Di, 18.06. 18:40 6 1 - 50° NO
Di, 18.06. 18:30 6 1 13 60° NO
Di, 18.06. 18:00 6 1 13 50° NO
Di, 18.06. 17:30 4 1 14 50° NO
Di, 18.06. 17:00 4 1 18 140° SO
Di, 18.06. 16:30 7 2 18 240° SW
Ortszeit Untergrenze Bedeckung Gattung
total tief tief mittel hoch
Di, 18.06. 14:00 1260 m 8/8 8/8 - - -
Di, 18.06. 8:00 4800 m 6/8 3/8 - - -
Di, 18.06. 2:00 - 0/8 0/8 - - -
Mo, 17.06. 20:00 930 m 7/8 7/8 - - -
Mo, 17.06. 14:00 1320 m 7/8 7/8 - - -
Mo, 17.06. 8:00 7500 m 1/8 0/8 - - -
Mo, 17.06. 2:00 2100 m 8/8 8/8 - - -
So, 16.06. 20:00 4200 m 8/8 8/8 - - -
Ortszeit Bedeckungsgrad in Achtel und Wolkenuntergrenze
Di, 18.06. 19:30 4(1500m) 5(2100m) 7(3000m)
Di, 18.06. 19:20 4(1500m) 5(2100m) 7(3000m)
Di, 18.06. 19:10 7
Di, 18.06. 19:00 3(1800m) 7(2700m) 8(3300m)
Di, 18.06. 18:50 3(1800m) 7(2700m) 8(3300m)
Di, 18.06. 18:40 8
Di, 18.06. 18:30 3(2100m) 7(3300m) 8(4200m)
Di, 18.06. 18:00 1(2100m) 3(4200m) 8(5400m)
Di, 18.06. 17:30 1(1500m) 8(5400m)
Di, 18.06. 17:00 4(1800m) 8(5400m) 8(6300m)
Di, 18.06. 16:30 3(1380m) 7(5400m) 7(7200m)
Ortszeit Luftdruck NN (hPa) Tendenz (hPa in 3 Std.)
Di, 18.06. 14:00 1015 - 0,8
Di, 18.06. 8:00 1016 + 0,5
Di, 18.06. 2:00 1015 + 0,8
Mo, 17.06. 20:00 1013 + 1,5
Mo, 17.06. 14:00 1012 + 0,2
Mo, 17.06. 8:00 1011 + 0,2
Mo, 17.06. 2:00 1011 + 0,7
So, 16.06. 20:00 1009 - 0,7
Ortszeit Luftdruck NN (hPa) Tendenz (hPa in 3 Std.)
Di, 18.06. 19:30 1011 - 2,2
Di, 18.06. 19:20 1011 keine Meldung
Di, 18.06. 19:10 1011 keine Meldung
Di, 18.06. 19:00 1012 - 2,4
Di, 18.06. 18:50 1012 keine Meldung
Di, 18.06. 18:40 1012 keine Meldung
Di, 18.06. 18:30 1012 - 2,0
Di, 18.06. 18:00 1013 - 1,9
Di, 18.06. 17:30 1013 - 2,0
Di, 18.06. 17:00 1013 - 1,9
Di, 18.06. 16:30 1014 - 1,8
Ortszeit Schneehöhe (cm)
Di, 18.06. 14:00 0
Di, 18.06. 8:00 0
Di, 18.06. 2:00 0
Mo, 17.06. 20:00 0
Mo, 17.06. 14:00 0
Mo, 17.06. 8:00 0
Mo, 17.06. 2:00 0
So, 16.06. 20:00 0
Ortszeit Schneehöhe (cm)
Di, 18.06. 19:30 0
Di, 18.06. 19:20 0
Di, 18.06. 19:10 -
Di, 18.06. 19:00 0
Di, 18.06. 18:50 0
Di, 18.06. 18:40 -
Di, 18.06. 18:30 0
Di, 18.06. 18:00 0
Di, 18.06. 17:30 0
Di, 18.06. 17:00 0
Di, 18.06. 16:30 0
Link zu dieser Seite / Seite empfehlen

Das Wetter in ...